User: anonymous
Location: Mentone
(34.5413°N, 85.5351°W)
Time: 08:44:06
(UTC-05:00)
Language:

Uosat F - Orbit

View from above orbital plane
View from above orbital plane
View from above satellite
View from above satellite

Ground track
Ground track

The orbit data is extracted from the following two-line orbital elements,

1 21575U 91050B   14243.51040510  .00000140  00000-0  58540-4 0   964
2 21575 098.7070 220.9874 0008585 099.3218 011.3064 14.40413831214329
Epoch (UTC): 31 August 2014 12:14:59
Eccentricity: 0.0008585
inclination: 98.7070°
perigee height: 751 km
apogee height: 763 km
right ascension of ascending node: 220.9874°
argument of perigee: 99.3218°
revolutions per day: 14.40413831
mean anomaly at epoch: 11.3064°
orbit number at epoch: 21432

The dashed part of the orbit path shows where the satellite is in the earth's shadow,  

DLR